CAPE
994 827 1021 1128 171 44 27 0 62 87 87 34 13 23 23 28 33 26 34 20 211 304 699 1010 1777 1556 1494 1468 1460 1331 1648 1647 1698 1660 2143 1811 1687 1789 1623 1661 1605 1518 1226 1226 1316 1188 1479 1211 1297
957 1115 1162 1005 40 27 23 0 73 81 52 46 13 31 26 26 12 9 41 142 465 874 799 1232 1530 1985 1349 1306 1582 1550 1513 1721 1717 1899 2209 1942 1829 1566 1355 1548 1268 1619 1516 1522 1470 1504 1365 1232 1598
909 1469 925 352 48 62 60 41 46 48 51 72 26 9 26 25 15 38 13 422 1024 714 891 1213 1902 2215 1736 1408 1430 1756 1729 1789 1736 1735 1861 2093 1865 1866 1629 1463 1280 1204 1357 1474 1376 1357 1180 956 913
1565 991 924 238 80 86 89 96 66 52 19 0 0 0 0 28 25 38 236 826 811 999 1075 1394 1619 1780 1631 1491 1511 1511 1633 1789 1634 1550 1647 1680 1429 1488 1626 1867 1737 1283 906 724 784 825 856 897 902
45 1 10 21 50 76 66 66 95 80 69 29 11 0 0 12 49 155 331 229 202 1109 1128 1277 2028 1508 1512 1497 1538 1505 1620 1665 1715 1467 1565 1702 1636 1734 1014 610 640 742 1091 1196 740 777 661 455 536
26 5 2 60 104 119 93 92 128 105 21 8 17 20 55 77 178 287 478 786 971 1297 1063 1141 1702 1478 1545 1577 1337 1431 1493 1457 1470 1555 1621 1472 1366 1586 1255 813 734 875 749 658 808 783 763 603 661
12 0 105 96 129 222 125 135 126 38 31 61 45 66 80 129 182 338 554 916 1222 1240 1144 1150 1375 1096 1331 1429 1539 1492 1429 1551 1609 1623 1698 1552 1267 1234 1125 1091 1042 1183 1090 1162 781 554 450 498 533
22 91 93 83 157 338 164 178 86 214 127 96 103 63 148 128 310 567 785 1058 1230 1236 1104 1187 1333 990 981 1044 1348 1423 1577 1475 1461 1530 1364 1244 1335 1530 1283 1430 1241 1042 948 958 912 839 759 765 711
60 61 89 127 270 509 235 135 302 438 101 197 436 123 136 241 524 650 763 958 1022 987 1006 1173 966 755 849 1018 1309 1216 1564 1253 1307 1187 1157 975 749 694 717 894 1114 1118 955 781 824 897 792 828 920
45 33 74 296 156 550 292 356 502 153 240 384 227 166 253 433 647 780 730 781 745 703 878 922 709 714 967 1094 1234 1115 1004 1066 1040 1091 747 553 348 125 410 628 878 925 1180 1092 926 1172 1060 1296 294
53 27 94 324 349 588 344 568 492 133 520 430 138 192 322 568 868 871 752 691 518 577 813 735 636 802 874 935 958 1011 902 792 538 364 204 271 265 235 154 198 422 496 478 495 810 1006 187 705 160
140 331 248 338 389 551 502 517 348 376 629 568 211 185 420 713 870 819 717 666 532 345 414 465 555 793 717 593 804 737 372 233 236 167 114 135 275 357 488 347 282 193 181 139 132 57 19 353 401
533 148 237 243 435 331 443 568 515 548 535 449 304 322 512 667 809 820 739 697 571 319 268 210 357 541 719 375 562 667 433 278 159 57 74 157 248 301 494 291 335 205 183 62 47 26 27 84 334
73 44 133 211 274 413 277 549 601 629 387 371 352 366 590 679 789 755 696 663 590 383 225 218 216 305 423 362 314 359 321 291 249 263 320 363 381 492 443 369 205 137 175 87 19 2 24 131 307
2 1 8 165 176 266 437 550 620 486 309 357 433 471 538 688 743 727 625 530 368 283 151 249 264 246 342 346 330 458 388 398 411 519 565 560 575 423 542 455 332 280 301 257 118 16 74 162 267
32 1 3 50 155 194 279 324 559 357 250 294 427 494 564 618 711 716 650 394 316 172 55 120 318 264 254 324 372 444 621 690 683 613 591 553 537 635 662 564 561 662 546 396 249 80 136 260 244
120 66 16 38 176 136 149 176 495 336 231 219 278 357 329 292 432 577 531 422 330 290 194 103 132 315 355 293 315 491 636 270 440 462 488 453 704 873 870 760 824 815 457 337 235 197 202 218 153
120 127 156 135 435 169 112 107 473 358 318 296 261 305 350 398 318 290 276 239 267 276 236 207 213 243 341 371 330 458 613 419 354 502 487 619 672 681 379 602 1052 573 482 388 149 139 164 180 242
44 186 188 127 161 177 67 92 397 424 327 351 339 334 403 450 414 497 356 282 320 274 246 205 165 195 320 362 412 405 577 160 353 550 508 693 647 789 772 1044 1112 490 438 439 140 128 221 255 296
0 209 111 123 178 135 85 123 222 339 292 306 301 378 400 396 422 446 479 399 228 270 257 192 155 156 335 417 439 538 287 246 500 656 608 603 697 972 1193 1143 1074 568 603 546 456 404 367 385 392
0 39 40 45 267 147 70 50 143 268 189 248 176 164 202 277 289 293 349 331 380 215 251 216 184 189 410 555 533 488 574 631 718 706 625 637 911 1207 1418 1249 885 757 1046 943 815 695 570 587 507
0 0 20 211 131 117 19 41 107 258 414 233 141 158 157 105 107 56 115 158 386 260 214 256 201 289 610 694 562 258 518 652 916 842 609 682 871 1344 1439 1401 1056 740 811 826 871 747 543 671 652
28 131 239 194 92 41 66 44 24 125 313 212 109 98 137 129 144 147 167 117 82 92 164 229 202 290 559 688 386 223 334 477 802 921 967 917 1072 1528 1638 1562 1149 987 970 868 997 1079 1109 793 933
323 421 402 307 201 243 31 72 0 40 153 247 212 106 79 167 161 137 195 149 99 82 128 188 194 286 372 513 346 292 267 312 817 1016 879 954 1117 1501 1699 1669 1306 804 882 940 1054 1075 1155 1086 1087
141 102 1 84 148 4 5 0 0 3 15 34 48 431 368 178 161 97 173 170 104 123 104 142 260 352 386 543 367 317 341 397 676 825 1004 1251 1060 1184 1617 1621 1353 1336 692 926 900 1115 919 893 800
20 0 0 0 0 23 17 71 37 2 9 35 10 63 174 221 160 130 151 228 204 202 133 191 214 339 410 491 432 321 479 762 891 906 867 1123 1192 1130 1563 1616 1530 1183 746 1102 837 803 844 764 716
0 0 0 15 40 23 14 18 0 6 8 10 9 55 64 158 181 122 187 198 237 201 208 161 217 202 218 324 351 312 371 625 899 1072 1230 1195 1478 1454 1605 1600 1562 1440 852 847 1063 1103 887 805 831
0 0 0 7 17 46 72 1 48 13 114 43 246 344 112 119 134 116 163 213 220 235 225 175 259 306 313 432 335 292 378 503 599 1080 1327 1386 1331 1654 1729 1827 1798 1655 1544 1017 883 1175 956 892 629
0 0 0 0 28 2 0 98 214 178 156 284 238 179 305 219 205 302 295 223 200 157 174 224 256 378 342 415 391 399 452 475 536 773 1159 1408 1611 1342 1865 1963 1839 1721 1632 1693 1421 1377 1079 976 752
0 0 0 0 0 0 27 184 473 571 497 652 366 337 418 412 1340 1461 1262 403 258 273 164 230 232 295 404 466 492 615 656 725 795 817 836 959 1206 1547 1493 1362 1416 1544 1835 1783 1863 1834 1649 1214 1017
CIN
-4 -17 -4 -3 -60 -46 -27 0 -25 -52 -36 -39 -39 -8 0 0 0 0 -2 -53 -12 -43 -3 -2 -1 0 0 0 0 0 0 0 0 0 0 0 0 0 0 0 0 0 0 0 0 0 0 0 0
-35 -10 -3 -10 -28 -29 -26 0 -31 -38 -55 -45 -22 -20 -16 0 -4 -16 0 -28 -12 -10 -5 -4 -3 0 0 -1 0 0 0 0 0 0 0 0 0 0 0 0 0 0 0 0 0 0 0 0 0
-49 -8 -28 -73 -44 -26 -31 -21 -20 -47 -73 -57 -43 -25 -12 -2 -3 -1 -23 -2 -1 -8 -5 -1 0 0 0 0 0 0 0 0 0 0 0 0 0 0 0 0 0 0 0 0 0 0 0 -2 0
-15 -45 -47 -67 -43 -25 -30 -15 -22 -28 -106 0 0 0 0 -7 -20 -2 -15 -4 -7 -8 -2 -2 0 0 0 0 0 0 0 0 0 0 0 0 0 0 0 0 0 0 0 0 0 0 -3 -2 -2
-161 -18 -22 -26 -33 -17 -20 -21 -37 -31 -36 -188 -172 0 0 -19 -54 -21 -9 -47 -9 -3 -3 -1 0 0 0 0 0 0 0 0 0 -1 0 0 0 0 -1 -6 -12 -3 -2 0 0 0 -3 -18 -9
-27 -25 -13 -33 -54 -71 -127 -26 -50 -51 -208 -93 -163 -150 -71 -15 -31 -18 -22 -2 -1 -2 -2 -2 0 0 0 0 0 0 0 0 0 0 0 0 0 0 0 -6 -2 0 -1 -5 -2 -1 -3 -7 -14
-52 0 -107 -55 -59 -63 -87 -57 -49 -188 -198 -220 -65 -16 -91 -22 -61 -42 -19 -5 -8 -11 -4 -2 -1 -3 0 0 0 0 0 0 0 0 0 0 0 0 -1 -3 0 0 0 -1 -2 -4 -6 -13 -17
-81 -189 -108 -59 -65 -78 -74 -123 -15 -117 -164 -176 -42 -95 -131 -113 -65 -37 -14 -6 -5 -3 -3 -1 0 -17 -11 -4 0 0 0 0 0 0 0 0 0 0 0 0 0 0 0 0 0 0 -2 -3 -10
-342 -23 -34 -44 -43 -91 -75 -132 -89 -93 -195 -88 -86 -195 -222 -139 -62 -46 -28 -1 -3 -5 -8 -14 -30 -29 -38 -20 0 0 0 0 0 0 0 -4 -16 -9 -12 -9 -4 0 0 0 0 0 -1 -3 -4
-46 -25 -108 -106 -49 -73 -61 -104 -84 -157 -45 -106 -224 -171 -184 -162 -56 -58 -46 -39 -36 -41 -41 -48 -46 -63 -45 -25 -23 -15 -8 -13 -13 -7 -18 -28 -45 -70 -68 -37 -16 -14 -3 0 0 0 -1 -7 -18
-26 -35 -177 -60 -80 -60 -73 -92 -88 -17 -108 -98 -233 -244 -251 -187 -73 -49 -54 -75 -104 -90 -68 -73 -71 -58 -52 -52 -54 -21 -33 -43 -47 -62 -64 -10 -32 -27 -34 -65 -87 -39 -49 -25 -9 -5 -65 -21 -40
-97 -87 -123 -111 -95 -72 -95 -94 -110 -108 -89 -83 -224 -285 -255 -172 -120 -83 -80 -75 -111 -139 -137 -118 -98 -71 -90 -94 -68 -52 -86 -107 -100 -103 -99 -28 -25 -45 -53 -63 -85 -57 -27 -26 -32 -38 -108 -45 -42
-129 -110 -137 -47 -42 -39 -41 -98 -91 -91 -84 -80 -260 -229 -203 -169 -143 -101 -106 -100 -102 -158 -189 -198 -156 -124 -96 -125 -92 -84 -111 -131 -125 -67 -15 -53 -50 -42 -49 -39 -84 -57 -34 -42 -28 -56 -115 -90 -51
-158 -6 -19 -42 -25 -33 -74 -102 -85 -62 -87 -204 -226 -225 -192 -164 -153 -114 -129 -121 -108 -123 -172 -58 -186 -167 -138 -136 -139 -131 -134 -126 -2 -111 -78 -59 -54 -52 -49 -20 -36 -44 -52 -39 -22 -157 -14 -69 -50
-222 -9 -27 -31 -244 -40 -79 -67 -76 -69 -167 -176 -156 -170 -173 -149 -126 -133 -121 -121 -125 -139 -197 -44 -47 -131 -160 -131 -62 -80 -98 -17 -28 -27 -48 -57 -41 -19 -8 -26 -26 -43 -32 -7 -18 -94 -60 -25 -57
-167 -52 -72 -226 -128 -171 -46 -59 -136 -103 -156 -165 -161 -133 -120 -137 -129 -94 -93 -24 -15 -79 -269 -127 -41 -52 -69 -116 -93 -41 -58 -55 -63 -67 -68 -49 -13 -13 -17 -31 -30 -45 -24 -12 -20 -46 -64 -35 -33
-52 -221 -241 -57 -204 -136 -57 -61 -164 -143 -186 -204 -130 -141 -109 -98 -143 -133 -107 -88 -20 -27 -41 -52 -32 -45 -37 -69 -50 -32 -58 -46 -36 -16 -8 -10 -153 -37 -28 -11 -23 -36 -54 -66 -68 -60 -44 -38 -55
-136 -204 -223 -256 -174 -130 -85 -121 -113 -146 -180 -210 -203 -78 -48 -19 -16 -23 -24 -49 -37 -30 -29 -37 -39 -34 -46 -49 -54 -44 -39 -37 -30 -22 -112 -78 -38 -16 -35 -7 -20 -50 -72 -79 -110 -71 -82 -69 -37
-226 -207 -167 -237 -271 -214 -129 -168 -105 -104 -127 -151 -159 -161 -57 -44 -31 -18 -20 -27 -56 -80 -38 -38 -50 -43 -50 -61 -64 -61 -62 -41 -78 -14 -40 -78 -11 -9 -5 -22 -8 -59 -87 -70 -156 -156 -107 -79 -60
0 -196 -234 -220 -211 -245 -218 -209 -135 -101 -127 -122 -115 -133 -115 -84 -82 -75 -52 -49 -43 -56 -64 -52 -51 -77 -65 -64 -59 -72 -73 -41 -28 -24 -27 -37 -9 -12 -14 -23 -15 -56 -40 -38 -66 -63 -71 -62 -48
0 -288 -242 -98 -210 -174 -285 -262 -241 -183 -156 -120 -124 -88 -144 -125 -130 -120 -90 -91 -63 -41 -48 -74 -82 -192 -100 -81 -79 -90 -124 -68 -43 -22 -22 -17 -9 -13 -20 -20 -28 -14 -27 -22 -22 -22 -30 -59 -39
0 0 -306 -232 -171 -120 -297 -107 -261 -270 -256 -267 -182 -199 -92 -150 -106 -130 -71 -84 -48 -51 -55 -56 -80 -251 -136 -101 -100 -164 -80 -50 -25 -20 -26 -46 -92 -46 -16 -17 -12 -32 -48 -44 -37 -36 -36 -26 -83
-199 -348 -271 -256 -62 -152 -202 -147 -91 -260 -261 -259 -187 -215 -147 -160 -47 -71 -100 -96 -114 -77 -61 -68 -83 -269 -166 -129 -143 -157 -122 -66 -33 -23 -46 -36 -90 -35 -10 -11 -24 -44 -31 -50 -32 -27 -34 -53 -31
-219 -142 -132 -93 -118 -64 -116 -153 0 -180 -99 -256 -301 -195 -207 -114 -259 -48 -68 -105 -252 -259 -121 -103 -234 -23 -178 -128 -166 -149 -154 -131 -35 -18 -23 -30 -71 -25 -20 -18 -28 -56 -51 -61 -35 -41 -32 -39 -36
-150 -81 -30 -113 -98 -48 -169 0 0 -93 -236 -174 -255 -221 -200 -346 -261 -188 -29 -55 -106 -266 -195 -106 -25 -10 -82 -106 -129 -173 -199 -167 -83 -36 -181 -46 -19 -88 -41 -33 -30 -37 -84 -36 -45 -32 -68 -72 -65
-134 0 0 0 0 -208 -164 -170 -136 -51 -116 -131 -393 -288 -204 -352 -318 -260 -74 -43 -52 -34 -33 -7 -244 -132 -169 -156 -162 -179 -320 -189 -120 -83 -48 -187 -56 -201 -50 -28 -45 -49 -77 -48 -65 -97 -86 -97 -95
0 0 0 -151 -140 -191 -233 -238 0 -22 -180 -114 -249 -290 -275 -318 -383 -288 -184 -81 -124 -65 -57 -45 -283 -28 -177 -32 -193 -215 -293 -237 -168 -87 -33 -181 -73 -152 -58 -33 -12 -41 -98 -121 -68 -55 -85 -90 -82
0 0 0 -98 -106 -99 -93 -17 -93 -225 -133 -428 -402 -292 -310 -149 -324 -251 -227 -136 -92 -61 -44 -46 -10 -8 -12 -4 -62 -219 -196 -171 -243 -233 -153 -60 -164 -55 -118 -37 -25 -25 -43 -89 -171 -67 -84 -92 -124
0 0 0 0 -71 -62 0 -91 -131 -304 -288 -442 -425 -322 -468 -239 -230 -114 -125 -126 -97 -76 -41 -45 -29 -375 -21 -11 -14 -102 -279 -227 -256 -306 -231 -114 -53 -67 -50 -31 -29 -50 -57 -51 -45 -33 -75 -65 -110
0 0 0 0 0 0 -114 -96 -185 -308 -151 -102 -215 -245 -385 -253 -222 -258 -314 -41 -75 -97 -79 -23 -18 -27 -344 -442 -423 -456 -425 -399 -245 -195 -310 -277 -133 -72 -58 -201 -78 -74 -29 -122 -48 -43 -40 -35 -73
Wind_Speed
12 7 9 9 4 nan nan nan nan nan nan nan nan nan nan nan nan nan nan nan 15 13 11 8 10 10 10 8 5 6 6 6 3 7 8 10 10 8 7 9 11 12 10 11 12 15 12 11 12
8 10 9 9 nan nan nan nan nan nan nan nan nan nan nan nan nan nan nan 20 17 17 16 12 10 10 9 9 7 5 7 6 5 8 8 7 9 8 8 8 10 10 11 10 12 10 12 11 11
15 13 7 6 nan nan nan nan nan nan nan nan nan nan nan nan nan nan nan 19 20 16 19 13 9 7 7 7 5 4 5 4 6 7 7 8 9 9 9 10 9 11 12 11 12 13 10 13 12
12 5 7 6 nan nan nan nan nan nan nan nan nan nan nan nan nan nan 13 20 25 19 17 10 7 8 4 5 3 2 3 2 4 6 9 12 10 8 10 10 9 8 9 11 12 11 10 11 13
nan nan nan nan nan nan nan nan nan nan nan nan nan nan nan nan nan 15 14 13 10 11 19 15 7 6 5 1 1 2 3 2 2 6 8 9 9 11 9 9 9 7 7 9 11 10 10 9 9
nan nan nan nan 6 9 nan nan 7 7 nan nan nan nan nan nan 19 18 12 19 6 14 19 16 7 5 3 2 1 3 4 4 6 9 10 10 11 12 12 13 12 10 8 6 7 8 7 8 7
nan nan 11 nan 7 9 11 10 9 nan nan nan nan nan nan 7 14 10 14 13 8 16 10 22 18 9 5 5 5 5 7 6 8 11 10 11 11 12 12 12 11 8 7 7 8 8 7 7 6
nan nan nan nan 8 9 13 9 nan 11 3 nan 11 nan 4 7 9 20 20 12 6 5 10 25 17 14 11 11 8 8 8 8 10 11 11 11 10 9 9 9 10 9 8 8 8 8 11 9 9
nan nan nan 7 4 10 15 12 17 12 17 8 6 8 7 4 15 12 6 15 11 17 24 17 14 12 12 13 13 10 11 12 13 11 12 9 6 5 10 13 12 11 8 8 8 9 12 9 7
nan nan nan 11 10 13 15 17 14 12 17 4 4 11 19 11 6 12 14 11 7 24 22 20 14 12 14 13 11 11 12 10 10 9 9 6 8 10 12 14 14 10 11 8 8 5 6 9 9
nan nan nan 13 8 8 15 15 10 15 14 16 15 15 26 12 13 11 9 19 21 22 22 16 15 14 14 14 12 10 10 9 9 9 9 10 10 9 12 13 12 7 6 10 4 5 1 6 8
11 13 12 15 13 11 14 11 11 18 17 17 15 15 18 26 20 15 21 24 22 20 17 15 16 15 14 12 12 10 8 7 9 9 10 10 10 10 14 18 19 13 14 4 4 nan nan 4 6
7 12 18 24 18 11 13 10 10 15 10 16 7 12 18 19 23 26 27 24 20 16 14 13 13 14 13 11 10 10 8 8 9 nan nan 8 10 11 12 18 20 17 8 nan nan nan nan nan 6
nan nan 17 22 21 15 8 10 6 10 13 14 2 10 12 18 22 25 27 24 21 15 14 12 13 13 11 12 11 8 8 9 9 8 9 10 12 13 13 16 16 17 15 nan nan nan nan 8 8
nan nan nan 21 19 14 8 8 14 12 12 13 5 8 10 12 12 16 25 17 12 12 13 13 13 12 11 12 9 7 7 7 8 6 9 11 13 13 12 11 13 16 14 16 12 nan nan 13 11
nan nan nan nan 13 18 9 11 13 16 15 14 6 7 7 9 9 10 18 13 11 10 nan 12 12 11 12 12 7 6 8 6 7 5 9 13 14 10 9 11 12 15 15 15 15 nan 13 12 12
26 nan nan nan 13 17 17 11 16 17 17 13 10 8 6 5 7 16 13 11 8 9 7 8 9 11 10 10 7 6 8 6 5 6 7 10 10 8 9 9 9 10 9 11 10 9 10 9 9
30 32 35 36 18 17 17 16 15 14 15 16 9 6 5 6 10 6 9 5 5 5 6 7 7 8 8 7 6 6 7 6 5 6 5 9 7 5 8 7 5 4 3 5 6 7 6 7 6
nan 27 29 24 21 20 nan nan 18 13 8 8 10 7 3 6 9 7 1 3 2 2 3 4 4 6 3 5 4 5 5 3 4 5 6 9 6 3 5 3 2 2 1 3 2 4 5 4 7
nan 22 24 14 18 12 nan 16 19 18 9 6 7 7 10 3 3 2 3 2 2 4 4 3 6 2 1 4 4 4 0 3 3 2 4 8 5 4 2 2 2 1 2 1 1 2 4 4 8
nan nan nan nan 14 7 nan nan 17 22 5 6 5 4 3 6 5 4 4 1 2 2 3 3 5 3 2 3 7 5 3 3 3 1 4 3 3 2 3 2 1 2 2 2 2 3 2 3 5
nan nan nan 19 12 15 nan nan 18 18 18 17 10 10 5 6 9 nan 12 10 5 4 5 4 2 2 2 4 5 2 1 3 1 1 4 3 1 3 2 1 2 4 3 3 2 3 1 3 1
nan 4 6 11 nan nan nan nan nan 17 20 19 16 nan 12 6 12 17 14 10 nan nan 5 4 4 2 3 4 3 2 3 3 4 2 5 4 4 5 0 2 3 4 5 6 7 3 3 3 3
10 12 7 6 9 12 nan nan nan nan 20 17 15 12 nan 9 13 16 19 19 nan nan 11 9 5 3 3 5 2 2 5 5 5 3 3 3 6 6 1 3 4 6 5 6 7 2 4 5 5
15 13 nan nan 4 nan nan nan nan nan nan nan nan 7 17 20 17 nan 17 17 15 12 10 10 8 5 5 3 0 4 3 4 6 3 3 3 6 8 3 4 3 4 5 5 8 3 5 6 7
nan nan nan nan nan nan nan nan nan nan nan nan nan nan 20 19 13 13 13 13 12 12 9 8 9 5 3 0 1 2 3 4 5 5 5 6 6 8 9 6 2 4 7 7 7 5 4 4 5
nan nan nan nan nan nan nan nan nan nan nan nan nan nan nan 20 13 9 4 7 9 11 13 11 11 7 2 2 3 5 3 4 6 4 7 8 9 10 11 8 6 7 8 9 8 6 7 8 10
nan nan nan nan nan nan nan nan nan nan 14 nan 12 1 26 17 12 9 3 2 5 9 10 11 9 8 7 4 5 4 5 5 7 7 6 8 11 12 14 11 8 9 10 10 10 9 10 13 12
nan nan nan nan nan nan nan nan 21 19 11 8 6 13 21 18 17 12 6 4 5 5 8 11 11 11 9 11 9 9 4 6 9 8 7 10 13 12 12 13 13 12 13 14 14 11 12 15 15
nan nan nan nan nan nan nan 10 14 17 14 17 17 16 21 17 15 8 9 2 4 5 7 10 14 14 14 13 12 12 8 9 9 8 8 13 12 12 10 13 16 16 16 18 19 16 16 20 19
Wind_Direction
53 76 83 71 109 nan nan nan nan nan nan nan nan nan nan nan nan nan nan nan 199 186 163 187 229 229 220 225 225 250 270 283 316 321 341 351 360 356 352 359 8 4 6 356 3 9 12 18 25
32 52 73 62 nan nan nan nan nan nan nan nan nan nan nan nan nan nan nan 163 210 209 194 193 223 214 207 209 209 256 280 296 318 340 342 353 355 359 350 359 9 353 5 11 11 11 13 25 28
23 64 73 98 nan nan nan nan nan nan nan nan nan nan nan nan nan nan nan 193 209 181 191 186 220 227 213 225 213 240 295 303 328 336 339 356 352 6 2 7 1 3 351 1 1 8 12 28 39
32 34 72 89 nan nan nan nan nan nan nan nan nan nan nan nan nan nan 221 226 223 204 170 192 210 220 234 241 253 251 304 328 335 343 358 0 349 354 357 3 355 4 355 359 13 11 25 27 45
nan nan nan nan nan nan nan nan nan nan nan nan nan nan nan nan nan 247 244 274 281 221 158 174 193 196 190 191 294 6 32 41 52 20 13 6 354 350 357 358 1 9 357 344 353 8 21 26 50
nan nan nan nan 31 38 nan nan 2 300 nan nan nan nan nan nan 237 229 208 241 213 243 181 168 177 171 166 118 89 53 46 32 31 41 26 23 5 359 0 356 6 13 10 345 340 349 14 27 40
nan nan 74 nan 41 57 33 6 342 nan nan nan nan nan nan 188 232 230 210 203 208 269 170 177 150 141 146 114 93 62 57 46 44 45 40 28 19 1 8 359 0 13 30 5 356 348 1 10 38
nan nan nan nan 33 47 25 15 nan 358 349 nan 360 nan 24 69 268 221 203 171 259 199 227 151 138 145 136 114 84 84 87 76 57 53 43 40 32 11 10 7 11 19 15 14 2 10 357 40 19
nan nan nan 107 59 35 20 30 40 2 356 23 14 341 354 355 244 191 202 231 221 156 137 132 120 119 111 108 113 97 90 75 63 57 59 56 48 38 30 14 9 14 21 26 14 8 18 20 20
nan nan nan 108 83 30 24 34 36 27 14 19 311 277 316 320 129 196 212 200 180 140 138 115 116 115 107 112 114 126 118 114 89 79 86 67 55 38 32 26 20 11 16 338 347 344 18 36 38
nan nan nan 144 102 20 26 48 44 17 42 23 348 354 12 43 165 163 165 139 138 118 103 110 119 117 113 124 134 130 123 111 84 85 73 65 63 54 40 17 20 2 315 293 256 268 21 42 29
187 180 141 146 130 39 54 51 2 45 50 12 351 25 36 33 136 143 150 120 90 96 103 110 116 120 114 128 125 118 113 95 90 82 74 63 65 59 51 36 34 45 10 324 175 nan nan 36 44
167 166 156 178 163 112 51 56 41 67 10 5 339 25 44 40 82 114 111 104 107 101 105 120 121 120 126 116 115 114 114 100 95 nan nan 59 65 67 52 43 45 49 38 nan nan nan nan nan 59
nan nan 167 158 163 134 65 75 60 46 8 10 6 55 57 57 65 96 96 93 90 104 114 125 115 112 117 114 108 125 127 113 104 87 68 44 40 49 44 51 50 53 56 nan nan nan nan 105 63
nan nan nan 151 138 123 124 88 86 23 11 25 92 56 80 73 77 75 87 91 95 114 124 118 115 108 99 99 115 132 108 92 89 95 71 47 36 38 48 56 61 66 63 69 80 nan nan 97 84
nan nan nan nan 128 118 118 82 69 27 3 23 38 57 41 64 108 122 93 89 107 113 nan 121 123 121 115 112 121 115 107 110 95 64 50 45 35 35 56 63 66 72 72 73 81 nan 79 78 70
59 nan nan nan 69 94 91 83 44 29 18 2 4 40 75 100 75 94 121 99 104 105 119 128 136 124 113 111 132 120 126 122 117 59 50 52 22 37 57 64 73 66 74 75 74 84 90 82 92
57 66 61 57 66 57 85 98 59 35 20 13 0 17 62 113 102 67 126 43 50 109 138 130 130 109 106 131 156 157 145 132 96 41 40 40 43 55 61 83 72 45 48 82 92 94 109 82 68
nan 53 52 60 55 63 nan nan 40 49 61 41 9 350 58 39 95 145 158 146 13 34 47 70 70 82 170 176 180 155 148 83 50 47 31 35 59 83 57 72 73 92 106 96 105 116 99 99 83
nan 43 52 54 54 67 nan 44 21 14 57 69 74 26 356 70 246 170 148 188 2 0 10 30 61 25 120 191 210 215 93 48 30 128 18 52 77 98 112 84 47 353 293 299 71 94 93 96 94
nan nan nan nan 20 33 nan nan 32 29 43 22 46 7 334 335 303 240 212 180 202 282 351 15 38 357 303 239 216 210 184 251 200 152 88 76 78 112 120 100 53 331 314 21 24 33 81 114 96
nan nan nan 9 23 25 nan nan 66 38 47 25 352 324 297 290 268 nan 243 240 216 154 188 180 221 253 272 253 232 272 284 300 277 55 97 160 167 143 97 50 6 323 333 351 339 340 47 143 113
nan 191 16 28 nan nan nan nan nan 24 37 33 24 nan 280 229 257 273 269 258 nan nan 233 207 208 235 258 251 242 302 334 328 309 232 164 186 205 155 210 350 335 346 321 333 334 290 190 187 219
308 215 152 49 41 54 nan nan nan nan 10 344 327 4 nan 255 220 244 261 249 nan nan 225 229 220 184 249 270 247 23 19 344 307 272 182 208 203 184 166 1 347 342 347 340 351 355 175 215 217
226 196 nan nan 71 nan nan nan nan nan nan nan nan 195 192 234 231 nan 258 257 243 242 230 242 232 196 211 207 269 353 5 338 334 315 191 255 217 208 232 289 334 340 349 344 308 294 194 194 204
nan nan nan nan nan nan nan nan nan nan nan nan nan nan 206 216 238 236 239 259 266 262 246 267 270 229 226 137 32 288 314 310 322 304 254 220 234 233 250 271 292 6 353 338 314 301 262 260 266
nan nan nan nan nan nan nan nan nan nan nan nan nan nan nan 178 222 217 264 303 302 312 308 309 294 295 311 350 260 284 286 329 317 306 266 223 227 237 242 255 285 311 327 343 322 307 298 292 293
nan nan nan nan nan nan nan nan nan nan 84 nan 74 337 169 150 160 125 97 88 356 352 328 305 305 320 327 270 266 268 305 314 302 283 250 244 239 248 254 251 251 270 299 313 316 309 309 312 303
nan nan nan nan nan nan nan nan 8 29 20 88 72 86 130 138 135 119 139 76 66 10 341 318 304 300 291 281 277 268 272 301 298 297 268 233 234 245 263 268 268 277 289 301 305 321 314 314 321
nan nan nan nan nan nan nan 46 1 341 15 88 96 115 127 133 132 119 107 79 331 346 337 328 322 327 313 287 279 282 271 276 285 307 292 255 238 234 243 252 263 278 287 296 301 313 317 319 330